This is the latest recevied weather packets stored in our database for station/object KF4CQ. If no packets are shown the sender has not sent any weather packets the latest 10 day(s).
| Time | Temp. | Humidity | Pressure | Rain* | Wind** | Luminosity | Snow |
|---|---|---|---|---|---|---|---|
| 1777441273 | 18.89° C | 98% | 1018.2 hPa | 0 mm | - | 0 W/m² | - |
| 1777440967 | 18.89° C | 98% | 1018.4 hPa | 0 mm | - | 0 W/m² | - |
| 1777440664 | 18.89° C | 97% | 1018.5 hPa | 0 mm | - | 0 W/m² | - |
| 1777440359 | 18.89° C | 97% | 1018.5 hPa | 0 mm | - | 0 W/m² | - |
| 1777440056 | 18.89° C | 97% | 1018.7 hPa | 0 mm | - | 0 W/m² | - |
| 1777439751 | 18.89° C | 97% | 1018.7 hPa | 0 mm | - | 0 W/m² | - |
| 1777439447 | 18.89° C | 96% | 1018.8 hPa | 0 mm | - | 0 W/m² | - |
| 1777439143 | 18.89° C | 96% | 1018.9 hPa | 0 mm | - | 0 W/m² | - |
| 1777438840 | 18.89° C | 96% | 1018.9 hPa | 0 mm | - | 0 W/m² | - |
| 1777438537 | 19.44° C | 96% | 1019.2 hPa | 0 mm | - | 0 W/m² | - |
| 1777438233 | 19.44° C | 95% | 1019.1 hPa | 0 mm | - | 0 W/m² | - |
| 1777437929 | 19.44° C | 95% | 1019.1 hPa | 0 mm | - | 0 W/m² | - |
| 1777437626 | 19.44° C | 95% | 1019 hPa | 0 mm | - | 0 W/m² | - |
| 1777437322 | 19.44° C | 94% | 1018.7 hPa | 0 mm | - | 0 W/m² | - |
| 1777437018 | 20° C | 94% | 1018.9 hPa | 0 mm | - | 0 W/m² | - |
| 1777436715 | 20° C | 93% | 1018.9 hPa | 0 mm | - | 0 W/m² | - |
| 1777435805 | 20.56° C | 92% | 1018.7 hPa | 0 mm | - | 0 W/m² | - |
| 1777433681 | 21.11° C | 89% | 1018.5 hPa | 0 mm | - | 0 W/m² | - |
| 1777432769 | 21.11° C | 90% | 1018.8 hPa | 0 mm | - | 0 W/m² | - |
| 1777432160 | 20.56° C | 90% | 1019 hPa | 0 mm | - | 0 W/m² | - |
| 1777431859 | 21.11° C | 89% | 1019.1 hPa | 0 mm | - | 0 W/m² | - |
| 1777430035 | 21.67° C | 86% | 1019 hPa | 0 mm | - | 0 W/m² | - |
| 1777429732 | 22.22° C | 85% | 1019 hPa | 0 mm | - | 0 W/m² | - |
| 1777429428 | 22.22° C | 85% | 1018.9 hPa | 0 mm | - | 0 W/m² | - |
| 1777428821 | 22.22° C | 84% | 1018.9 hPa | 0 mm | - | 0 W/m² | - |
* Rain latest hour (hover to see other rain measurements)
** Current wind speed in m/s (hover to see current wind gust speed)